Flag for U.S.A. Weather past 2 weeks in Lakewood, New Jersey, U.S.A.

Now
64 °F

Partly cloudy.


Feels Like: 64 °F
Forecast: 63 / 81 °F
Wind: 6 mph from Northwest

Location: Belmar-Farmdale

Current Time: Jul 25, 2014 at 3:50:29 AM

Latest Report: Jul 25, 2014 at 3:35 AM


Visibility: 10 mi

Pressure: 29.95 "Hg

Humidity: 68%

Dew point: 54 °F

Location of LakewoodLocation

Historic Weather in Lakewood — Graph

°F

Lakewood temperature yesterday

Maximum temperature yesterday: 81 °F (at 3:35 PM)
Minimum temperature yesterday: 70 °F (at 5:35 AM)
Average temperature yesterday: 75 °F

Past Weeks' High & Low Weather Summary

 TemperatureHumidityPressure
High88 °F (Jul 15, 12:35 PM)94% (Jul 14, 10:35 PM)30.25 "Hg (Jul 14, 10:35 PM)
Low61 °F (Jul 18, 3:15 AM)32% (Jul 18, 1:35 PM)29.75 "Hg (Jul 15, 2:15 PM)
Average73 °F70%30.04 "Hg
* Reported Jul 10 2:15 AM — Jul 25 2:55 AM, Lakewood, Weather by CustomWeather, © 2014

Note: Actual official high and low records may vary slightly from our data, if they occured in-between our weather recording intervals... More about our weather records

Advertising

Lakewood weather history for previous 24 hours

 ConditionsComfort  
Time TempWeatherWind HumidityBarometerVisibility
2:55 AM
Jul 25
64 °FClear.5 mph68%29.94 "Hg10 mi
2:35 AM66 °FClear.5 mph64%29.94 "Hg10 mi
2:15 AM66 °FClear.6 mph64%29.93 "Hg10 mi
1:55 AM68 °FPassing clouds.7 mph60%29.93 "Hg10 mi
1:35 AM70 °FPassing clouds.7 mph57%29.92 "Hg10 mi
1:15 AM70 °FMostly cloudy.7 mph60%29.92 "Hg10 mi
12:55 AM70 °FOvercast.6 mph57%29.92 "Hg10 mi
12:35 AM72 °FOvercast.7 mph53%29.92 "Hg10 mi
12:15 AM70 °FPassing clouds.7 mph60%29.90 "Hg10 mi
11:55 PM
Jul 24
72 °FPassing clouds.7 mph57%29.90 "Hg10 mi
11:35 PM72 °FPassing clouds.6 mph57%29.90 "Hg10 mi
10:55 PM72 °FClear.6 mph57%29.90 "Hg10 mi
10:35 PM72 °FPassing clouds.3 mph61%29.90 "Hg10 mi
10:15 PM73 °FOvercast.No wind61%29.90 "Hg10 mi
9:55 PM72 °FPartly cloudy.7 mph69%29.89 "Hg10 mi
9:35 PM72 °FPassing clouds.5 mph69%29.89 "Hg10 mi
9:15 PM73 °FPartly sunny.6 mph65%29.89 "Hg10 mi
8:55 PM73 °FPartly sunny.5 mph65%29.88 "Hg10 mi
8:35 PM73 °FBroken clouds.3 mph65%29.88 "Hg10 mi
8:15 PM72 °FScattered clouds.6 mph69%29.87 "Hg10 mi
7:55 PM75 °FSunny.No wind65%29.87 "Hg10 mi
7:35 PM77 °FSunny.No wind57%29.86 "Hg10 mi
7:15 PM79 °FSunny.No wind54%29.85 "Hg10 mi
6:55 PM79 °FSunny.6 mph54%29.85 "Hg10 mi
6:35 PM79 °FSunny.6 mph54%29.84 "Hg10 mi
6:15 PM79 °FSunny.7 mph54%29.84 "Hg10 mi
5:55 PM79 °FSunny.9 mph54%29.84 "Hg10 mi
5:35 PM79 °FSunny.9 mph54%29.84 "Hg10 mi
5:15 PM81 °FPassing clouds.6 mph51%29.84 "Hg10 mi
4:55 PM79 °FPartly sunny.8 mph54%29.85 "Hg10 mi
4:35 PM79 °FScattered clouds.7 mph58%29.85 "Hg10 mi
4:15 PM79 °FScattered clouds.9 mph54%29.85 "Hg10 mi
3:55 PM79 °FPartly sunny.9 mph58%29.85 "Hg10 mi
3:35 PM81 °FPassing clouds.9 mph54%29.85 "Hg10 mi
3:15 PM79 °FBroken clouds.8 mph58%29.86 "Hg10 mi
2:55 PM79 °FScattered clouds.7 mph58%29.85 "Hg10 mi
2:35 PM79 °FScattered clouds.7 mph58%29.86 "Hg10 mi
2:15 PM77 °FBroken clouds.10 mph61%29.87 "Hg10 mi
1:55 PM77 °FMostly cloudy.7 mph61%29.87 "Hg10 mi
1:35 PM79 °FBroken clouds.3 mph58%29.87 "Hg10 mi
1:15 PM77 °FBroken clouds.8 mph61%29.87 "Hg10 mi
12:55 PM79 °FPartly sunny.8 mph58%29.87 "Hg10 mi
12:35 PM79 °FPartly sunny.9 mph58%29.88 "Hg10 mi
12:15 PM77 °FPartly sunny.9 mph61%29.87 "Hg10 mi
11:55 AM77 °FPartly sunny.9 mph61%29.87 "Hg10 mi
11:35 AM77 °FBroken clouds.5 mph61%29.88 "Hg10 mi
11:15 AM77 °FBroken clouds.7 mph65%29.87 "Hg10 mi
10:55 AM77 °FPartly sunny.10 mph65%29.87 "Hg10 mi
10:35 AM77 °FPartly sunny.9 mph65%29.87 "Hg10 mi
10:15 AM75 °FPassing clouds.10 mph69%29.87 "Hg10 mi
9:55 AM75 °FScattered clouds.8 mph65%29.86 "Hg10 mi
9:35 AM75 °FPartly sunny.9 mph65%29.86 "Hg10 mi
9:15 AM75 °FScattered clouds.13 mph65%29.85 "Hg10 mi
8:55 AM73 °FPartly sunny.12 mph69%29.85 "Hg10 mi
8:35 AM73 °FOvercast.13 mph74%29.86 "Hg10 mi
7:55 AM72 °FSunny.9 mph73%29.86 "Hg10 mi
7:35 AM72 °FPassing clouds.9 mph73%29.85 "Hg10 mi
7:15 AM70 °FSunny.9 mph78%29.85 "Hg10 mi
6:55 AM70 °FSunny.8 mph78%29.84 "Hg10 mi
6:35 AM70 °FClear.7 mph78%29.83 "Hg10 mi
6:15 AM70 °FClear.7 mph78%29.83 "Hg10 mi
5:55 AM70 °FClear.8 mph78%29.82 "Hg10 mi
5:35 AM70 °FClear.9 mph78%29.82 "Hg10 mi
5:15 AM72 °FClear.12 mph73%29.82 "Hg10 mi
4:55 AM72 °FClear.10 mph78%29.82 "Hg10 mi
4:35 AM72 °FClear.8 mph78%29.82 "Hg10 mi
4:15 AM72 °FClear.6 mph78%29.82 "Hg10 mi
3:55 AM72 °FClear.7 mph78%29.80 "Hg10 mi
3:35 AM73 °FClear.7 mph78%29.80 "Hg10 mi
3:15 AM73 °FClear.7 mph78%29.81 "Hg10 mi
Weather by CustomWeather, © 2014

See weather overviewHow to use our weather pages